Weather History for Dalhart, TX

Change the Weather History Date:

Monday, July 28, 2014

  Actual Average Record
Temperature  
Mean Temperature 68 °F 77 °F  
Max Temperature 77 °F 91 °F 103 °F (1995)
Min Temperature 58 °F 62 °F 49 °F (2005)
Degree Days  
Heating Degree Days 0 0  
Month to date heating degree days 0 0  
Since 1 June heating degree days 4 12  
Since 1 July heating degree days 0 0  
Cooling Degree Days 3 12  
Month to date cooling degree days 359 332  
Year to date cooling degree days 775 644  
Since 1 June cooling degree days 655 572  
Growing Degree Days 18 (Base 50)    
Moisture  
Dew Point 59 °F    
Average Humidity 71    
Maximum Humidity 93    
Minimum Humidity 49    
Precipitation  
Precipitation 1.01 in 0.10 in 1.45 in (1962)
Month to date precipitation 2.15 2.49  
Year to date precipitation 7.76 10.20  
Snow  
Snow 0.00 in 0.00 in 0.00 in ()
Month to date snowfall 0.0 0.0  
Since 1 June snowfall 0.0 0.0  
Since 1 July snowfall 0.0 0.0  
Snow Depth 0.00 in    
Sea Level Pressure  
Sea Level Pressure 30.28 in    
Wind  
Wind Speed 10 mph (East)    
Max Wind Speed 30 mph    
Max Gust Speed 38 mph    
Visibility 8 miles    
Events Rain , Thunderstorm    
T = Trace of Precipitation, MM = Missing Value Source: NWS Daily Summary

Daily Weather History Graph

Daily Weather History Graph

Search for Another Location

Airport:

Trip Planner

Search our weather history database for the weather conditions in past years. The results will help you decide how hot, cold, wet, or windy it might be!

Date:

Astronomy

Jul. 28, 2014 Rise Set
Actual Time 6:54 AM CDT 8:58 PM CDT
Civil Twilight 6:25 AM CDT 9:26 PM CDT
Nautical Twilight 5:51 AM CDT 10:01 PM CDT
Astronomical Twilight 5:13 AM CDT 10:39 PM CDT
Moon 8:33 AM CDT (7/28) 9:47 PM CDT (7/28)
Length of Visible Light 15h 01m
Length of Day
14h 04m
Waxing Crescent, 3% of the Moon is Illuminated
Jul 28
Waxing Crescent
Aug 3
First Quarter
Aug 10
Full
Aug 17
Last Quarter
Aug 25
New

Hourly Weather History & Observations

Time (CDT) Temp. Dew Point Humidity Pressure Visibility Wind Dir Wind Speed Gust Speed Precip Events Conditions
12:20 AM 73.9 °F 53.1 °F 48% 30.30 in 10.0 mi ENE 12.7 mph - N/A Thunderstorm Mostly Cloudy
12:53 AM 73.0 °F 53.1 °F 49% 30.14 in 10.0 mi ENE 9.2 mph - N/A Thunderstorm Mostly Cloudy
1:10 AM 72.0 °F 53.1 °F 51% 30.33 in 10.0 mi East 6.9 mph - N/A   Mostly Cloudy
1:36 AM 72.0 °F 55.0 °F 55% 30.32 in 10.0 mi ENE 6.9 mph - 0.00 in Rain , Thunderstorm Light Thunderstorms and Rain
1:53 AM 69.1 °F 57.0 °F 65% 30.14 in 10.0 mi ENE 8.1 mph - 0.00 in Thunderstorm Thunderstorm
2:38 AM 63.0 °F 55.0 °F 75% 30.34 in 1.5 mi East 25.3 mph 38.0 mph 0.22 in Rain , Thunderstorm Heavy Thunderstorms and Rain
2:45 AM 61.0 °F 54.0 °F 78% 30.35 in 0.8 mi East 24.2 mph 38.0 mph 0.55 in Rain , Thunderstorm Heavy Thunderstorms and Rain
2:53 AM 60.1 °F 53.1 °F 78% 30.21 in 1.0 mi NE 10.4 mph - 0.76 in Rain , Thunderstorm Heavy Thunderstorms and Rain
3:04 AM 60.1 °F 55.0 °F 83% 30.38 in 3.0 mi NNW 15.0 mph 24.2 mph 0.04 in Rain , Thunderstorm Thunderstorms and Rain
3:15 AM 60.1 °F 55.0 °F 83% 30.40 in 10.0 mi NW 17.3 mph - 0.05 in Rain , Thunderstorm Light Thunderstorms and Rain
3:49 AM 60.8 °F 55.4 °F 82% 30.40 in 2.5 mi NW 9.2 mph - 0.13 in Rain , Thunderstorm Thunderstorms and Rain
3:53 AM 62.1 °F 57.9 °F 86% 30.24 in 4.0 mi WNW 9.2 mph - 0.13 in Rain , Thunderstorm Light Thunderstorms and Rain
4:24 AM 61.0 °F 57.9 °F 90% 30.38 in 7.0 mi NNE 13.8 mph - 0.01 in Rain , Thunderstorm Light Rain
4:32 AM 60.1 °F 57.0 °F 90% 30.38 in 9.0 mi NNE 12.7 mph - 0.01 in Rain Light Rain
4:43 AM 61.0 °F 57.0 °F 87% 30.39 in 6.0 mi NNE 8.1 mph - 0.01 in Rain , Thunderstorm Rain
4:53 AM 61.0 °F 57.9 °F 90% 30.21 in 4.0 mi North 12.7 mph - 0.04 in Rain , Thunderstorm Thunderstorms and Rain
5:13 AM 61.0 °F 57.9 °F 90% 30.38 in 4.0 mi NNE 13.8 mph - 0.04 in Rain Rain
5:53 AM 62.1 °F 59.0 °F 90% 30.21 in 7.0 mi NE 11.5 mph - 0.06 in Rain Light Rain
6:53 AM 63.0 °F 60.1 °F 90% 30.21 in 10.0 mi NE 9.2 mph - 0.01 in   Partly Cloudy
7:53 AM 63.0 °F 60.1 °F 90% 30.21 in 8.0 mi East 9.2 mph - N/A   Mostly Cloudy
8:53 AM 62.6 °F 59.0 °F 88% 30.40 in 10.0 mi ESE 12.7 mph - N/A   Overcast
9:49 AM 64.4 °F 60.8 °F 88% 30.41 in 10.0 mi SE 11.5 mph - 0.01 in   Partly Cloudy
9:53 AM 64.9 °F 60.1 °F 84% 30.26 in 10.0 mi ESE 12.7 mph - 0.01 in   Partly Cloudy
10:09 AM 66.0 °F 61.0 °F 84% 30.41 in 10.0 mi ESE 9.2 mph - N/A   Mostly Cloudy
10:53 AM 68.0 °F 61.0 °F 78% 30.26 in 10.0 mi SE 13.8 mph - N/A   Mostly Cloudy
11:26 AM 69.8 °F 60.8 °F 73% 30.41 in 10.0 mi ESE 10.4 mph - N/A   Scattered Clouds
11:53 AM 70.0 °F 61.0 °F 73% 30.26 in 10.0 mi ESE 9.2 mph - N/A   Overcast
12:15 PM 70.0 °F 61.0 °F 73% 30.40 in 10.0 mi East 10.4 mph - N/A   Overcast
12:48 PM 69.8 °F 62.6 °F 78% 30.39 in 10.0 mi SE 9.2 mph - N/A   Mostly Cloudy
12:53 PM 69.8 °F 62.6 °F 78% 30.39 in 10.0 mi SE 9.2 mph - N/A   Mostly Cloudy
1:53 PM 71.6 °F 60.8 °F 69% 30.39 in 10.0 mi SE 9.2 mph - N/A   Mostly Cloudy
2:53 PM 73.0 °F 62.1 °F 68% 30.25 in 10.0 mi SE 11.5 mph - N/A   Mostly Cloudy
3:53 PM 73.9 °F 62.1 °F 66% 30.22 in 10.0 mi SE 13.8 mph - N/A   Scattered Clouds
4:53 PM 73.9 °F 62.1 °F 66% 30.19 in 10.0 mi SE 11.5 mph - N/A   Clear
5:53 PM 75.9 °F 64.0 °F 67% 30.16 in 10.0 mi SE 11.5 mph - N/A   Scattered Clouds
6:23 PM 77.0 °F 63.0 °F 62% 30.29 in 10.0 mi SSE 11.5 mph - N/A   Mostly Cloudy
6:31 PM 77.0 °F 63.0 °F 62% 30.29 in 10.0 mi SSE 10.4 mph - N/A   Scattered Clouds
6:53 PM 77.0 °F 63.0 °F 62% 30.14 in 10.0 mi SSE 11.5 mph - N/A   Scattered Clouds
7:53 PM 75.9 °F 63.0 °F 64% 30.14 in 10.0 mi ESE 9.2 mph - N/A   Clear
8:53 PM 72.0 °F 64.0 °F 76% 30.14 in 10.0 mi ESE 8.1 mph - N/A   Clear
9:53 PM 70.0 °F 64.0 °F 81% 30.16 in 10.0 mi ESE 5.8 mph - N/A   Clear
10:53 PM 68.0 °F 64.0 °F 87% 30.17 in 8.0 mi East 6.9 mph - N/A   Clear
11:53 PM 66.9 °F 62.1 °F 84% 30.16 in 10.0 mi ESE 8.1 mph - N/A   Clear